START_TIME,STEP,MOV.,EG07,t_acc.,EG08,t_acc.,EG09,t_acc.,EB05,t_acc.,EBP05,t_acc.
1980-11-14 06:00:11.400 ,5,0,0.,1.2,0.,1.2,0.,1.2,,0.0,,0.0
1980-11-14 06:00:12.600 ,5,0,0.,1.2,0.,1.2,0.,1.2,,0.0,,0.0
1980-11-14 06:00:13.800 ,5,0,0.,1.2,0.,1.2,0.,1.2,,0.0,,0.0
1980-11-14 06:00:15.000 ,5,0,0.,1.2,0.,1.2,0.,1.2,,0.0,,0.0
1980-11-14 06:00:16.200 ,5,0,0.,1.2,0.,1.2,0.,1.2,,0.0,,0.0
1980-11-14 06:00:17.400 ,5,0,0.,1.2,0.,1.2,0.,1.2,,0.0,,0.0
1980-11-14 06:00:18.600 ,5,0,0.,1.2,0.,1.2,0.,1.2,,0.0,,0.0
1980-11-14 06:00:19.800 ,5,0,0.,1.2,0.,1.2,0.,1.2,,0.0,,0.0
1980-11-14 06:00:21.000 ,5,0,0.,1.2,0.,1.2,0.,1.2,,0.0,,0.0
1980-11-14 06:00:22.200 ,5,0,0.,1.2,0.,1.2,0.,1.2,,0.0,,0.0
1980-11-14 06:00:23.400 ,5,0,0.,1.2,0.,1.2,0.,1.2,,0.0,,0.0
1980-11-14 06:00:24.600 ,5,0,0.,1.2,0.,1.2,0.,1.2,,0.0,,0.0
1980-11-14 06:00:25.800 ,5,0,0.,1.2,0.,1.2,0.,1.2,,0.0,,0.0
1980-11-14 06:00:27.000 ,5,0,0.,1.2,0.,1.2,0.,1.2,,0.0,,0.0
1980-11-14 06:00:28.200 ,5,0,0.,1.2,0.,1.2,0.,1.2,,0.0,,0.0
1980-11-14 06:00:29.400 ,5,0,0.,1.2,0.,1.2,0.,1.2,,0.0,,0.0
1980-11-14 06:00:30.600 ,5,0,0.,1.2,0.,1.2,0.,1.2,,0.0,,0.0
1980-11-14 06:00:31.800 ,5,0,0.,1.2,0.,1.2,0.,1.2,,0.0,,0.0
1980-11-14 06:00:33.000 ,5,0,0.,1.2,0.,1.2,0.,1.2,,0.0,,0.0
1980-11-14 06:00:34.200 ,5,0,0.,1.2,0.,1.2,0.,1.2,,0.0,,0.0
1980-11-14 06:00:35.400 ,6,0,0.,1.2,0.,1.2,0.,1.2,,0.0,,0.0
1980-11-14 06:00:36.600 ,6,0,0.,1.2,0.,1.2,0.,1.2,,0.0,,0.0
1980-11-14 06:00:37.800 ,6,0,0.,1.2,0.,1.2,0.,1.2,,0.0,,0.0
1980-11-14 06:00:39.000 ,6,0,0.,1.2,0.,1.2,0.,1.2,,0.0,,0.0
1980-11-14 06:00:40.200 ,6,0,0.,1.2,0.,1.2,0.,1.2,,0.0,,0.0
1980-11-14 06:00:41.400 ,6,0,0.,1.2,0.,1.2,0.,1.2,,0.0,,0.0
1980-11-14 06:00:42.600 ,6,0,0.,1.2,0.,1.2,0.,1.2,,0.0,,0.0
1980-11-14 06:00:43.800 ,6,0,0.,1.2,0.,1.2,0.,1.2,,0.0,,0.0
1980-11-14 06:00:45.000 ,6,0,0.,1.2,0.,1.2,0.,1.2,,0.0,,0.0
1980-11-14 06:00:46.200 ,6,0,0.,1.2,0.,1.2,0.,1.2,,0.0,,0.0
1980-11-14 06:00:47.400 ,6,0,0.,1.2,0.,1.2,0.,1.2,,0.0,,0.0
1980-11-14 06:00:48.600 ,6,0,0.,1.2,0.,1.2,0.,1.2,,0.0,,0.0
1980-11-14 06:00:49.800 ,6,0,0.,1.2,0.,1.2,0.,1.2,,0.0,,0.0
1980-11-14 06:00:51.000 ,6,0,0.,1.2,0.,1.2,0.,1.2,,0.0,,0.0
1980-11-14 06:00:52.200 ,6,0,0.,1.2,0.,1.2,0.,1.2,,0.0,,0.0
1980-11-14 06:00:53.400 ,6,0,0.,1.2,0.,1.2,0.,1.2,,0.0,,0.0
1980-11-14 06:00:54.600 ,6,0,0.,1.2,0.,1.2,0.,1.2,,0.0,,0.0
1980-11-14 06:00:55.800 ,6,0,0.,1.2,0.,1.2,0.,1.2,,0.0,,0.0
1980-11-14 06:00:57.000 ,6,0,0.,1.2,0.,1.2,0.,1.2,,0.0,,0.0
1980-11-14 06:00:58.200 ,6,0,0.,1.2,0.,1.2,0.,1.2,,0.0,,0.0
1980-11-14 06:00:59.400 ,6,0,0.,1.2,0.,1.2,0.,1.2,,0.0,,0.0
1980-11-14 06:01:00.600 ,6,0,0.,1.2,0.,1.2,0.,1.2,,0.0,,0.0
1980-11-14 06:01:01.800 ,6,0,0.,1.2,0.,1.2,0.,1.2,,0.0,,0.0
1980-11-14 06:01:03.000 ,6,0,0.,1.2,0.,1.2,0.,1.2,,0.0,,0.0
1980-11-14 06:01:04.200 ,6,0,0.,1.2,0.,1.2,0.,1.2,,0.0,,0.0
1980-11-14 06:01:05.400 ,6,0,0.,1.2,0.,1.2,0.,1.2,,0.0,,0.0
1980-11-14 06:01:06.600 ,6,0,0.,1.2,0.,1.2,0.,1.2,,0.0,,0.0
1980-11-14 06:01:07.800 ,6,0,0.,1.2,0.,1.2,0.,1.2,,0.0,,0.0
1980-11-14 06:01:09.000 ,6,0,0.,1.2,0.,1.2,0.,1.2,,0.0,,0.0
1980-11-14 06:01:10.200 ,6,0,0.,1.2,0.,1.2,0.,1.2,,0.0,,0.0
1980-11-14 06:01:11.400 ,6,0,0.,1.2,0.,1.2,0.,1.2,,0.0,,0.0
1980-11-14 06:01:12.600 ,6,0,0.,1.2,0.,1.2,0.,1.2,,0.0,,0.0
1980-11-14 06:01:13.800 ,6,0,0.,1.2,0.,1.2,0.,1.2,,0.0,,0.0
1980-11-14 06:01:15.000 ,6,0,0.,1.2,0.,1.2,0.,1.2,,0.0,,0.0
1980-11-14 06:01:16.200 ,6,0,0.,1.2,0.,1.2,0.,1.2,,0.0,,0.0
1980-11-14 06:01:17.400 ,6,0,0.,1.2,0.,1.2,0.,1.2,,0.0,,0.0
1980-11-14 06:01:18.600 ,6,0,0.,1.2,0.,1.2,0.,1.2,,0.0,,0.0
1980-11-14 06:01:19.800 ,6,0,0.,1.2,0.,1.2,0.,1.2,,0.0,,0.0
1980-11-14 06:01:21.000 ,6,0,0.,1.2,0.,1.2,0.,1.2,,0.0,,0.0
1980-11-14 06:01:22.200 ,6,0,0.,1.2,0.,1.2,0.,1.2,,0.0,,0.0
1980-11-14 06:01:23.400 ,7,0,0.,1.2,0.,1.2,0.,1.2,,0.0,,0.0
1980-11-14 06:01:24.600 ,7,0,0.,1.2,0.,1.2,0.,1.2,,0.0,,0.0
1980-11-14 06:01:25.800 ,7,0,0.,1.2,0.,1.2,0.,1.2,,0.0,,0.0
1980-11-14 06:01:27.000 ,7,0,0.,1.2,0.,1.2,0.,1.2,,0.0,,0.0
1980-11-14 06:01:28.200 ,7,0,0.,1.2,0.,1.2,0.,1.2,,0.0,,0.0
1980-11-14 06:01:29.400 ,7,0,0.,1.2,0.,1.2,0.,1.2,,0.0,,0.0
1980-11-14 06:01:30.600 ,7,0,0.,1.2,0.,1.2,0.,1.2,,0.0,,0.0
1980-11-14 06:01:31.800 ,7,0,0.,1.2,0.,1.2,0.,1.2,,0.0,,0.0
1980-11-14 06:01:33.000 ,7,0,0.,1.2,0.,1.2,0.,1.2,,0.0,,0.0
1980-11-14 06:01:34.200 ,7,0,0.,1.2,0.,1.2,0.,1.2,,0.0,,0.0
1980-11-14 06:01:35.400 ,7,0,0.,1.2,0.,1.2,0.,1.2,,0.0,,0.0
1980-11-14 06:01:36.600 ,7,0,0.,1.2,0.,1.2,0.,1.2,,0.0,,0.0
1980-11-14 06:01:37.800 ,7,0,0.,1.2,0.,1.2,0.,1.2,,0.0,,0.0
1980-11-14 06:01:39.000 ,7,0,0.,1.2,0.,1.2,0.,1.2,,0.0,,0.0
1980-11-14 06:01:40.200 ,7,0,0.,1.2,0.,1.2,0.,1.2,,0.0,,0.0
1980-11-14 06:01:41.400 ,7,0,0.,1.2,0.,1.2,0.,1.2,,0.0,,0.0
1980-11-14 06:01:42.600 ,7,0,0.,1.2,0.,1.2,0.,1.2,,0.0,,0.0
1980-11-14 06:01:43.800 ,7,0,0.,1.2,0.,1.2,0.,1.2,,0.0,,0.0
1980-11-14 06:01:45.000 ,7,0,0.,1.2,0.,1.2,0.,1.2,,0.0,,0.0
1980-11-14 06:01:46.200 ,7,0,0.,1.2,0.,1.2,0.,1.2,,0.0,,0.0
1980-11-14 06:01:47.400 ,7,0,0.,1.2,0.,1.2,0.,1.2,,0.0,,0.0
1980-11-14 06:01:48.600 ,7,0,0.,1.2,0.,1.2,0.,1.2,,0.0,,0.0
1980-11-14 06:01:49.800 ,7,0,0.,1.2,0.,1.2,0.,1.2,,0.0,,0.0
1980-11-14 06:01:51.000 ,7,0,0.,1.2,0.,1.2,0.,1.2,,0.0,,0.0
1980-11-14 06:01:52.200 ,7,0,0.,1.2,0.,1.2,0.,1.2,,0.0,,0.0
1980-11-14 06:01:53.400 ,7,0,0.,1.2,0.,1.2,0.,1.2,,0.0,,0.0
1980-11-14 06:01:54.600 ,7,0,0.,1.2,0.,1.2,0.,1.2,,0.0,,0.0
1980-11-14 06:01:55.800 ,7,0,0.,1.2,0.,1.2,0.,1.2,,0.0,,0.0
1980-11-14 06:01:57.000 ,7,0,0.,1.2,0.,1.2,0.,1.2,,0.0,,0.0
1980-11-14 06:01:58.200 ,7,0,0.,1.2,0.,1.2,0.,1.2,,0.0,,0.0
1980-11-14 06:01:59.400 ,7,0,0.,1.2,0.,1.2,0.,1.2,,0.0,,0.0
1980-11-14 06:02:00.600 ,7,0,0.,1.2,0.,1.2,0.,1.2,,0.0,,0.0
1980-11-14 06:02:01.800 ,7,0,0.,1.2,0.,1.2,0.,1.2,,0.0,,0.0
1980-11-14 06:02:03.000 ,7,0,0.,1.2,0.,1.2,0.,1.2,,0.0,,0.0
1980-11-14 06:02:04.200 ,7,0,0.,1.2,0.,1.2,0.,1.2,,0.0,,0.0
1980-11-14 06:02:05.400 ,7,0,0.,1.2,0.,1.2,0.,1.2,,0.0,,0.0
1980-11-14 06:02:06.600 ,7,0,0.,1.2,0.,1.2,0.,1.2,,0.0,,0.0
1980-11-14 06:02:07.800 ,7,0,0.,1.2,0.,1.2,0.,1.2,,0.0,,0.0
1980-11-14 06:02:09.000 ,7,0,0.,1.2,0.,1.2,0.,1.2,,0.0,,0.0
1980-11-14 06:02:10.200 ,7,0,0.,1.2,0.,1.2,0.,1.2,,0.0,,0.0
1980-11-14 06:02:11.400 ,7,0,0.,1.2,0.,1.2,0.,1.2,,0.0,,0.0
1980-11-14 06:02:12.600 ,7,0,0.,1.2,0.,1.2,0.,1.2,,0.0,,0.0
1980-11-14 06:02:13.800 ,7,0,0.,1.2,0.,1.2,0.,1.2,,0.0,,0.0
1980-11-14 06:02:15.000 ,7,0,0.,1.2,0.,1.2,0.,1.2,,0.0,,0.0
1980-11-14 06:02:16.200 ,7,0,0.,1.2,0.,1.2,0.,1.2,,0.0,,0.0
1980-11-14 06:02:17.400 ,7,0,0.,1.2,0.,1.2,0.,1.2,,0.0,,0.0
1980-11-14 06:02:18.600 ,7,0,0.,1.2,0.,1.2,0.,1.2,,0.0,,0.0
1980-11-14 06:02:19.800 ,7,0,0.,1.2,0.,1.2,0.,1.2,,0.0,,0.0
1980-11-14 06:02:21.000 ,7,0,0.,1.2,0.,1.2,0.,1.2,,0.0,,0.0
1980-11-14 06:02:22.200 ,7,0,0.,1.2,0.,1.2,0.,1.2,,0.0,,0.0
1980-11-14 06:02:23.400 ,7,0,0.,1.2,0.,1.2,0.,1.2,,0.0,,0.0
1980-11-14 06:02:24.600 ,7,0,0.,1.2,0.,1.2,0.,1.2,,0.0,,0.0
1980-11-14 06:02:25.800 ,7,0,0.,1.2,0.,1.2,0.,1.2,,0.0,,0.0
1980-11-14 06:02:27.000 ,7,0,0.,1.2,0.,1.2,0.,1.2,,0.0,,0.0
1980-11-14 06:02:28.200 ,7,0,0.,1.2,0.,1.2,0.,1.2,,0.0,,0.0
1980-11-14 06:02:29.400 ,7,0,0.,1.2,0.,1.2,0.,1.2,,0.0,,0.0
1980-11-14 06:02:30.600 ,7,0,0.,1.2,0.,1.2,0.,1.2,,0.0,,0.0
1980-11-14 06:02:31.800 ,7,0,0.,1.2,0.,1.2,0.,1.2,,0.0,,0.0
1980-11-14 06:02:33.000 ,7,0,0.,1.2,0.,1.2,0.,1.2,,0.0,,0.0
1980-11-14 06:02:34.200 ,7,0,0.,1.2,0.,1.2,0.,1.2,,0.0,,0.0
1980-11-14 06:02:35.400 ,7,0,0.,1.2,0.,1.2,0.,1.2,,0.0,,0.0
1980-11-14 06:02:36.600 ,7,0,0.,1.2,0.,1.2,0.,1.2,,0.0,,0.0
1980-11-14 06:02:37.800 ,7,0,0.,1.2,0.,1.2,0.,1.2,,0.0,,0.0
1980-11-14 06:02:39.000 ,7,0,0.,1.2,0.,1.2,0.,1.2,,0.0,,0.0
1980-11-14 06:02:40.200 ,7,0,0.,1.2,0.,1.2,0.,1.2,,0.0,,0.0
1980-11-14 06:02:41.400 ,7,0,0.,1.2,0.,1.2,0.,1.2,,0.0,,0.0
1980-11-14 06:02:42.600 ,7,0,0.,1.2,0.,1.2,0.,1.2,,0.0,,0.0
1980-11-14 06:02:43.800 ,7,0,0.,1.2,0.,1.2,0.,1.2,,0.0,,0.0
1980-11-14 06:02:45.000 ,7,0,0.,1.2,0.,1.2,0.,1.2,,0.0,,0.0
1980-11-14 06:02:46.200 ,7,0,0.,1.2,0.,1.2,0.,1.2,,0.0,,0.0
1980-11-14 06:02:47.400 ,7,0,0.,1.2,0.,1.2,0.,1.2,,0.0,,0.0
1980-11-14 06:02:48.600 ,7,0,0.,1.2,0.,1.2,0.,1.2,,0.0,,0.0
1980-11-14 06:02:49.800 ,7,0,0.,1.2,0.,1.2,0.,1.2,,0.0,,0.0
1980-11-14 06:02:51.000 ,7,0,0.,1.2,0.,1.2,0.,1.2,,0.0,,0.0
1980-11-14 06:02:52.200 ,7,0,0.,1.2,0.,1.2,0.,1.2,,0.0,,0.0
1980-11-14 06:02:53.400 ,7,0,0.,1.2,0.,1.2,0.,1.2,,0.0,,0.0
1980-11-14 06:02:54.600 ,7,0,0.,1.2,0.,1.2,0.,1.2,,0.0,,0.0
1980-11-14 06:02:55.800 ,7,0,0.,1.2,0.,1.2,0.,1.2,,0.0,,0.0
1980-11-14 06:02:57.000 ,7,0,0.,1.2,0.,1.2,0.,1.2,,0.0,,0.0
1980-11-14 06:02:58.200 ,7,0,0.,1.2,0.,1.2,0.,1.2,,0.0,,0.0
1980-11-14 06:02:59.400 ,6,0,0.,1.2,0.,1.2,0.,1.2,,0.0,,0.0
1980-11-14 06:03:00.600 ,6,0,0.,1.2,0.,1.2,0.,1.2,,0.0,,0.0
1980-11-14 06:03:01.800 ,6,0,0.,1.2,0.,1.2,0.,1.2,,0.0,,0.0
1980-11-14 06:03:03.000 ,6,0,0.,1.2,0.,1.2,0.,1.2,,0.0,,0.0
1980-11-14 06:03:04.200 ,6,0,0.,1.2,0.,1.2,0.,1.2,,0.0,,0.0
1980-11-14 06:03:05.400 ,6,0,0.,1.2,0.,1.2,0.,1.2,,0.0,,0.0
1980-11-14 06:03:06.600 ,6,0,0.,1.2,0.,1.2,0.,1.2,,0.0,,0.0
1980-11-14 06:03:07.800 ,6,0,0.,1.2,0.,1.2,0.,1.2,,0.0,,0.0
1980-11-14 06:03:09.000 ,6,0,0.,1.2,0.,1.2,0.,1.2,,0.0,,0.0
1980-11-14 06:03:10.200 ,6,0,0.,1.2,0.,1.2,0.,1.2,,0.0,,0.0
1980-11-14 06:03:11.400 ,6,0,0.,1.2,0.,1.2,0.,1.2,,0.0,,0.0
1980-11-14 06:03:12.600 ,6,0,0.,1.2,0.,1.2,0.,1.2,,0.0,,0.0
1980-11-14 06:03:13.800 ,6,0,0.,1.2,0.,1.2,0.,1.2,,0.0,,0.0
1980-11-14 06:03:15.000 ,6,0,0.,1.2,0.,1.2,0.,1.2,,0.0,,0.0
1980-11-14 06:03:16.200 ,6,0,0.,1.2,0.,1.2,0.,1.2,,0.0,,0.0
1980-11-14 06:03:17.400 ,6,0,0.,1.2,0.,1.2,0.,1.2,,0.0,,0.0
1980-11-14 06:03:18.600 ,6,0,0.,1.2,0.,1.2,0.,1.2,,0.0,,0.0
1980-11-14 06:03:19.800 ,6,0,0.,1.2,0.,1.2,0.,1.2,,0.0,,0.0
1980-11-14 06:03:21.000 ,6,0,0.,1.2,0.,1.2,0.,1.2,,0.0,,0.0
1980-11-14 06:03:22.200 ,6,0,0.,1.2,0.,1.2,0.,1.2,,0.0,,0.0
1980-11-14 06:03:23.400 ,6,0,0.,1.2,0.,1.2,0.,1.2,,0.0,,0.0
1980-11-14 06:03:24.600 ,6,0,0.,1.2,0.,1.2,0.,1.2,,0.0,,0.0
1980-11-14 06:03:25.800 ,6,0,0.,1.2,0.,1.2,0.,1.2,,0.0,,0.0
1980-11-14 06:03:27.000 ,6,0,0.,1.2,0.,1.2,0.,1.2,,0.0,,0.0
1980-11-14 06:03:28.200 ,6,0,0.,1.2,0.,1.2,0.,1.2,,0.0,,0.0
1980-11-14 06:03:29.400 ,6,0,0.,1.2,0.,1.2,0.,1.2,,0.0,,0.0
1980-11-14 06:03:30.600 ,6,0,0.,1.2,0.,1.2,0.,1.2,,0.0,,0.0
1980-11-14 06:03:31.800 ,6,0,0.,1.2,0.,1.2,0.,1.2,,0.0,,0.0
1980-11-14 06:03:33.000 ,6,0,0.,1.2,0.,1.2,0.,1.2,,0.0,,0.0
1980-11-14 06:03:34.200 ,6,0,0.,1.2,0.,1.2,0.,1.2,,0.0,,0.0
1980-11-14 06:03:35.400 ,6,0,0.,1.2,0.,1.2,0.,1.2,,0.0,,0.0
1980-11-14 06:03:36.600 ,6,0,0.,1.2,0.,1.2,0.,1.2,,0.0,,0.0
1980-11-14 06:03:37.800 ,6,0,0.,1.2,0.,1.2,0.,1.2,,0.0,,0.0
1980-11-14 06:03:39.000 ,6,0,0.,1.2,0.,1.2,0.,1.2,,0.0,,0.0
1980-11-14 06:03:40.200 ,6,0,0.,1.2,0.,1.2,0.,1.2,,0.0,,0.0
1980-11-14 06:03:41.400 ,6,0,0.,1.2,0.,1.2,0.,1.2,,0.0,,0.0
1980-11-14 06:03:42.600 ,6,0,0.,1.2,0.,1.2,0.,1.2,,0.0,,0.0
1980-11-14 06:03:43.800 ,6,0,0.,1.2,0.,1.2,0.,1.2,,0.0,,0.0
1980-11-14 06:03:45.000 ,6,0,0.,1.2,0.,1.2,0.,1.2,,0.0,,0.0
1980-11-14 06:03:46.200 ,6,0,0.,1.2,0.,1.2,0.,1.2,,0.0,,0.0
1980-11-14 06:03:47.400 ,5,0,0.,1.2,0.,1.2,0.,1.2,,0.0,,0.0
1980-11-14 06:03:48.600 ,5,0,0.,1.2,0.,1.2,0.,1.2,,0.0,,0.0
1980-11-14 06:03:49.800 ,5,0,0.,1.2,0.,1.2,0.,1.2,,0.0,,0.0
1980-11-14 06:03:51.000 ,5,0,0.,1.2,0.,1.2,0.,1.2,,0.0,,0.0
1980-11-14 06:03:52.200 ,5,0,0.,1.2,0.,1.2,0.,1.2,,0.0,,0.0
1980-11-14 06:03:53.400 ,5,0,0.,1.2,0.,1.2,0.,1.2,,0.0,,0.0
1980-11-14 06:03:54.600 ,5,0,0.,1.2,0.,1.2,0.,1.2,,0.0,,0.0
1980-11-14 06:03:55.800 ,5,0,0.,1.2,0.,1.2,0.,1.2,,0.0,,0.0
1980-11-14 06:03:57.000 ,5,0,0.,1.2,0.,1.2,0.,1.2,,0.0,,0.0
1980-11-14 06:03:58.200 ,5,0,0.,1.2,0.,1.2,0.,1.2,,0.0,,0.0
1980-11-14 06:03:59.400 ,5,0,0.,1.2,0.,1.2,0.,1.2,,0.0,,0.0
1980-11-14 06:04:00.600 ,5,0,0.,1.2,0.,1.2,0.,1.2,,0.0,,0.0
1980-11-14 06:04:01.800 ,5,0,0.,1.2,0.,1.2,0.,1.2,,0.0,,0.0
1980-11-14 06:04:03.000 ,5,0,0.,1.2,0.,1.2,0.,1.2,,0.0,,0.0
1980-11-14 06:04:04.200 ,5,0,0.,1.2,0.,1.2,0.,1.2,,0.0,,0.0
1980-11-14 06:04:05.400 ,5,0,0.,1.2,0.,1.2,0.,1.2,,0.0,,0.0
1980-11-14 06:04:06.600 ,5,0,0.,1.2,0.,1.2,0.,1.2,,0.0,,0.0
1980-11-14 06:04:07.800 ,5,0,0.,1.2,0.,1.2,0.,1.2,,0.0,,0.0
1980-11-14 06:04:09.000 ,5,0,0.,1.2,0.,1.2,0.,1.2,,0.0,,0.0
1980-11-14 06:04:10.200 ,5,0,0.,1.2,0.,1.2,0.,1.2,,0.0,,0.0
1980-11-14 06:04:11.400 ,5,0,0.,1.2,0.,1.2,0.,1.2,,0.0,,0.0
1980-11-14 06:04:12.600 ,5,0,0.,1.2,0.,1.2,0.,1.2,,0.0,,0.0
1980-11-14 06:04:13.800 ,5,0,0.,1.2,0.,1.2,0.,1.2,,0.0,,0.0
1980-11-14 06:04:15.000 ,5,0,0.,1.2,0.,1.2,0.,1.2,,0.0,,0.0
1980-11-14 06:04:16.200 ,5,0,0.,1.2,0.,1.2,0.,1.2,,0.0,,0.0
1980-11-14 06:04:17.400 ,5,0,0.,1.2,0.,1.2,0.,1.2,,0.0,,0.0
1980-11-14 06:04:18.600 ,5,0,0.,1.2,0.,1.2,0.,1.2,,0.0,,0.0
1980-11-14 06:04:19.800 ,5,0,0.,1.2,0.,1.2,0.,1.2,,0.0,,0.0
1980-11-14 06:04:21.000 ,5,0,0.,1.2,0.,1.2,0.,1.2,,0.0,,0.0
1980-11-14 06:04:22.200 ,5,0,0.,1.2,0.,1.2,0.,1.2,,0.0,,0.0
1980-11-14 06:04:23.400 ,5,0,,0,,0,,0,,0,,0
1980-11-14 06:04:24.600 ,5,0,0.,1.2,0.,1.2,0.,1.2,,0.0,,0.0
1980-11-14 06:04:25.800 ,5,0,0.,1.2,0.,1.2,0.,1.2,,0.0,,0.0
1980-11-14 06:04:27.000 ,5,0,0.,1.2,0.,1.2,0.,1.2,,0.0,,0.0
1980-11-14 06:04:28.200 ,5,0,0.,1.2,0.,1.2,0.,1.2,,0.0,,0.0
1980-11-14 06:04:29.400 ,5,0,0.,1.2,0.,1.2,0.,1.2,,0.0,,0.0
1980-11-14 06:04:30.600 ,5,0,0.,1.2,0.,1.2,0.,1.2,,0.0,,0.0
1980-11-14 06:04:31.800 ,5,0,0.,1.2,0.,1.2,0.,1.2,,0.0,,0.0
1980-11-14 06:04:33.000 ,5,0,0.,1.2,0.,1.2,0.,1.2,,0.0,,0.0
1980-11-14 06:04:34.200 ,5,0,0.,1.2,0.,1.2,0.,1.2,,0.0,,0.0
1980-11-14 06:04:35.400 ,4,0,0.,1.2,0.,1.2,0.,1.2,,0.0,,0.0
1980-11-14 06:04:36.600 ,4,0,0.,1.2,0.,1.2,0.,1.2,,0.0,,0.0
1980-11-14 06:04:37.800 ,4,0,0.,1.2,0.,1.2,0.,1.2,,0.0,,0.0
1980-11-14 06:04:39.000 ,4,0,0.,1.2,0.,1.2,0.,1.2,,0.0,,0.0
1980-11-14 06:04:40.200 ,4,0,0.,1.2,0.,1.2,0.,1.2,,0.0,,0.0
1980-11-14 06:04:41.400 ,4,0,0.,1.2,0.,1.2,0.,1.2,,0.0,,0.0
1980-11-14 06:04:42.600 ,4,0,0.,1.2,0.,1.2,0.,1.2,,0.0,,0.0
1980-11-14 06:04:43.800 ,4,0,0.,1.2,0.,1.2,0.,1.2,,0.0,,0.0
1980-11-14 06:04:45.000 ,4,0,0.,1.2,0.,1.2,0.,1.2,,0.0,,0.0
1980-11-14 06:04:46.200 ,4,0,0.,1.2,0.,1.2,0.,1.2,,0.0,,0.0
1980-11-14 06:04:47.400 ,4,0,0.,1.2,0.,1.2,0.,1.2,,0.0,,0.0
1980-11-14 06:04:48.600 ,4,0,0.,1.2,0.,1.2,0.,1.2,,0.0,,0.0
1980-11-14 06:04:49.800 ,4,0,0.,1.2,0.,1.2,0.,1.2,,0.0,,0.0
1980-11-14 06:04:51.000 ,4,0,0.,1.2,0.,1.2,0.,1.2,,0.0,,0.0
1980-11-14 06:04:52.200 ,4,0,0.,1.2,0.,1.2,0.,1.2,,0.0,,0.0
1980-11-14 06:04:53.400 ,4,0,0.,1.2,0.,1.2,0.,1.2,,0.0,,0.0
1980-11-14 06:04:54.600 ,4,0,0.,1.2,0.,1.2,0.,1.2,,0.0,,0.0
1980-11-14 06:04:55.800 ,4,0,0.,1.2,0.,1.2,0.,1.2,,0.0,,0.0
1980-11-14 06:04:57.000 ,4,0,0.,1.2,0.,1.2,0.,1.2,,0.0,,0.0
1980-11-14 06:04:58.200 ,4,0,0.,1.2,0.,1.2,0.,1.2,,0.0,,0.0
1980-11-14 06:04:59.400 ,4,0,0.,1.2,0.,1.2,0.,1.2,,0.0,,0.0
1980-11-14 06:05:00.600 ,4,0,0.,1.2,0.,1.2,0.,1.2,,0.0,,0.0
1980-11-14 06:05:01.800 ,4,0,0.,1.2,0.,1.2,0.,1.2,,0.0,,0.0
1980-11-14 06:05:03.000 ,4,0,0.,1.2,0.,1.2,0.,1.2,,0.0,,0.0
1980-11-14 06:05:04.200 ,4,0,0.,1.2,0.,1.2,0.,1.2,,0.0,,0.0
1980-11-14 06:05:05.400 ,4,0,0.,1.2,0.,1.2,0.,1.2,,0.0,,0.0
1980-11-14 06:05:06.600 ,4,0,0.,1.2,0.,1.2,0.,1.2,,0.0,,0.0
1980-11-14 06:05:07.800 ,4,0,0.,1.2,0.,1.2,0.,1.2,,0.0,,0.0
1980-11-14 06:05:09.000 ,4,0,0.,1.2,0.,1.2,0.,1.2,,0.0,,0.0
1980-11-14 06:05:10.200 ,4,0,0.,1.2,0.,1.2,0.,1.2,,0.0,,0.0
1980-11-14 06:05:11.400 ,4,0,0.,1.2,0.,1.2,0.,1.2,,0.0,,0.0
1980-11-14 06:05:12.600 ,4,0,0.,1.2,0.,1.2,0.,1.2,,0.0,,0.0
1980-11-14 06:05:13.800 ,4,0,0.,1.2,0.,1.2,0.,1.2,,0.0,,0.0
1980-11-14 06:05:15.000 ,4,0,0.,1.2,0.,1.2,0.,1.2,,0.0,,0.0
1980-11-14 06:05:16.200 ,4,0,0.,1.2,0.,1.2,0.,1.2,,0.0,,0.0
1980-11-14 06:05:17.400 ,4,0,0.,1.2,0.,1.2,0.,1.2,,0.0,,0.0
1980-11-14 06:05:18.600 ,4,0,0.,1.2,0.,1.2,0.,1.2,,0.0,,0.0
1980-11-14 06:05:19.800 ,4,0,0.,1.2,0.,1.2,0.,1.2,,0.0,,0.0
1980-11-14 06:05:21.000 ,4,0,0.,1.2,0.,1.2,0.,1.2,,0.0,,0.0
1980-11-14 06:05:22.200 ,4,0,0.,1.2,0.,1.2,0.,1.2,,0.0,,0.0
1980-11-14 06:05:23.400 ,3,0,0.,1.2,0.,1.2,0.,1.2,,0.0,,0.0
1980-11-14 06:05:24.600 ,3,0,0.,1.2,0.,1.2,0.,1.2,,0.0,,0.0
1980-11-14 06:05:25.800 ,3,0,0.,1.2,0.,1.2,0.,1.2,,0.0,,0.0
1980-11-14 06:05:27.000 ,3,0,0.,1.2,0.,1.2,0.,1.2,,0.0,,0.0
1980-11-14 06:05:28.200 ,3,0,0.,1.2,0.,1.2,0.,1.2,,0.0,,0.0
1980-11-14 06:05:29.400 ,3,0,0.,1.2,0.,1.2,0.,1.2,,0.0,,0.0
1980-11-14 06:05:30.600 ,3,0,0.,1.2,0.,1.2,0.,1.2,,0.0,,0.0
1980-11-14 06:05:31.800 ,3,0,0.,1.2,0.,1.2,0.,1.2,,0.0,,0.0
1980-11-14 06:05:33.000 ,3,0,0.,1.2,0.,1.2,0.,1.2,,0.0,,0.0
1980-11-14 06:05:34.200 ,3,0,0.,1.2,0.,1.2,0.,1.2,,0.0,,0.0
1980-11-14 06:05:35.400 ,3,0,0.,1.2,0.,1.2,0.,1.2,,0.0,,0.0
1980-11-14 06:05:36.600 ,3,0,0.,1.2,0.,1.2,0.,1.2,,0.0,,0.0
1980-11-14 06:05:37.800 ,3,0,0.,1.2,0.,1.2,0.,1.2,,0.0,,0.0
1980-11-14 06:05:39.000 ,3,0,0.,1.2,0.,1.2,0.,1.2,,0.0,,0.0
1980-11-14 06:05:40.200 ,3,0,0.,1.2,0.,1.2,0.,1.2,,0.0,,0.0
1980-11-14 06:05:41.400 ,3,0,0.,1.2,0.,1.2,0.,1.2,,0.0,,0.0
1980-11-14 06:05:42.600 ,3,0,0.,1.2,0.,1.2,0.,1.2,,0.0,,0.0
1980-11-14 06:05:43.800 ,3,0,0.,1.2,0.,1.2,0.,1.2,,0.0,,0.0
1980-11-14 06:05:45.000 ,3,0,0.,1.2,0.,1.2,0.,1.2,,0.0,,0.0
1980-11-14 06:05:46.200 ,3,0,0.,1.2,0.,1.2,0.,1.2,,0.0,,0.0
1980-11-14 06:05:47.400 ,3,0,0.,1.2,0.,1.2,0.,1.2,,0.0,,0.0
1980-11-14 06:05:48.600 ,3,0,0.,1.2,0.,1.2,0.,1.2,,0.0,,0.0
1980-11-14 06:05:49.800 ,3,0,0.,1.2,0.,1.2,0.,1.2,,0.0,,0.0
1980-11-14 06:05:51.000 ,3,0,0.,1.2,0.,1.2,0.,1.2,,0.0,,0.0
1980-11-14 06:05:52.200 ,3,0,0.,1.2,0.,1.2,0.,1.2,,0.0,,0.0
1980-11-14 06:05:53.400 ,3,0,0.,1.2,0.,1.2,0.,1.2,,0.0,,0.0
1980-11-14 06:05:54.600 ,3,0,0.,1.2,0.,1.2,0.,1.2,,0.0,,0.0
1980-11-14 06:05:55.800 ,3,0,0.,1.2,0.,1.2,0.,1.2,,0.0,,0.0
1980-11-14 06:05:57.000 ,3,0,0.,1.2,0.,1.2,0.,1.2,,0.0,,0.0
1980-11-14 06:05:58.200 ,3,0,0.,1.2,0.,1.2,0.,1.2,,0.0,,0.0
1980-11-14 06:05:59.400 ,3,0,0.,1.2,0.,1.2,0.,1.2,,0.0,,0.0
1980-11-14 06:06:00.600 ,3,0,0.,1.2,0.,1.2,0.,1.2,,0.0,,0.0
1980-11-14 06:06:01.800 ,3,0,0.,1.2,0.,1.2,0.,1.2,,0.0,,0.0
1980-11-14 06:06:03.000 ,3,0,0.,1.2,0.,1.2,0.,1.2,,0.0,,0.0
1980-11-14 06:06:04.200 ,3,0,0.,1.2,0.,1.2,0.,1.2,,0.0,,0.0
1980-11-14 06:06:05.400 ,3,0,0.,1.2,0.,1.2,0.,1.2,,0.0,,0.0
1980-11-14 06:06:06.600 ,3,0,0.,1.2,0.,1.2,0.,1.2,,0.0,,0.0
1980-11-14 06:06:07.800 ,3,0,0.,1.2,0.,1.2,0.,1.2,,0.0,,0.0
1980-11-14 06:06:09.000 ,3,0,0.,1.2,0.,1.2,0.,1.2,,0.0,,0.0
1980-11-14 06:06:10.200 ,3,0,0.,1.2,0.,1.2,0.,1.2,,0.0,,0.0
1980-11-14 06:06:11.400 ,2,0,0.,1.2,0.,1.2,0.,1.2,,0.0,,0.0
1980-11-14 06:06:12.600 ,2,0,0.,1.2,0.,1.2,0.,1.2,,0.0,,0.0
1980-11-14 06:06:13.800 ,2,0,0.,1.2,0.,1.2,0.,1.2,,0.0,,0.0
1980-11-14 06:06:15.000 ,2,0,0.,1.2,0.,1.2,0.,1.2,,0.0,,0.0
1980-11-14 06:06:16.200 ,2,0,0.,1.2,0.,1.2,0.,1.2,,0.0,,0.0
1980-11-14 06:06:17.400 ,2,0,0.,1.2,0.,1.2,0.,1.2,,0.0,,0.0
1980-11-14 06:06:18.600 ,2,0,0.,1.2,0.,1.2,0.,1.2,,0.0,,0.0
1980-11-14 06:06:19.800 ,2,0,0.,1.2,0.,1.2,0.,1.2,,0.0,,0.0
1980-11-14 06:06:21.000 ,2,0,0.,1.2,0.,1.2,0.,1.2,,0.0,,0.0
1980-11-14 06:06:22.200 ,2,0,0.,1.2,0.,1.2,0.,1.2,,0.0,,0.0
1980-11-14 06:06:23.400 ,2,0,0.,1.2,0.,1.2,0.,1.2,,0.0,,0.0
1980-11-14 06:06:24.600 ,2,0,0.,1.2,0.,1.2,0.,1.2,,0.0,,0.0
1980-11-14 06:06:25.800 ,2,0,0.,1.2,0.,1.2,0.,1.2,,0.0,,0.0
1980-11-14 06:06:27.000 ,2,0,0.,1.2,0.,1.2,0.,1.2,,0.0,,0.0
1980-11-14 06:06:28.200 ,2,0,0.,1.2,0.,1.2,0.,1.2,,0.0,,0.0
1980-11-14 06:06:29.400 ,2,0,0.,1.2,0.,1.2,0.,1.2,,0.0,,0.0
1980-11-14 06:06:30.600 ,2,0,0.,1.2,0.,1.2,0.,1.2,,0.0,,0.0
1980-11-14 06:06:31.800 ,2,0,0.,1.2,0.,1.2,0.,1.2,,0.0,,0.0
1980-11-14 06:06:33.000 ,2,0,0.,1.2,0.,1.2,0.,1.2,,0.0,,0.0
1980-11-14 06:06:34.200 ,2,0,0.,1.2,0.,1.2,0.,1.2,,0.0,,0.0
1980-11-14 06:06:35.400 ,2,0,0.,1.2,0.,1.2,0.,1.2,,0.0,,0.0
1980-11-14 06:06:36.600 ,2,0,0.,1.2,0.,1.2,0.,1.2,,0.0,,0.0
1980-11-14 06:06:37.800 ,2,0,0.,1.2,0.,1.2,0.,1.2,,0.0,,0.0
1980-11-14 06:06:39.000 ,2,0,0.,1.2,0.,1.2,0.,1.2,,0.0,,0.0
1980-11-14 06:06:40.200 ,2,0,0.,1.2,0.,1.2,0.,1.2,,0.0,,0.0
1980-11-14 06:06:41.400 ,2,0,0.,1.2,0.,1.2,0.,1.2,,0.0,,0.0
1980-11-14 06:06:42.600 ,2,0,0.,1.2,0.,1.2,0.,1.2,,0.0,,0.0
1980-11-14 06:06:43.800 ,2,0,0.,1.2,0.,1.2,0.,1.2,,0.0,,0.0
1980-11-14 06:06:45.000 ,2,0,0.,1.2,0.,1.2,0.,1.2,,0.0,,0.0
1980-11-14 06:06:46.200 ,2,0,0.,1.2,0.,1.2,0.,1.2,,0.0,,0.0
1980-11-14 06:06:47.400 ,2,0,0.,1.2,0.,1.2,0.,1.2,,0.0,,0.0
1980-11-14 06:06:48.600 ,2,0,0.,1.2,0.,1.2,0.,1.2,,0.0,,0.0
1980-11-14 06:06:49.800 ,2,0,0.,1.2,0.,1.2,0.,1.2,,0.0,,0.0
1980-11-14 06:06:51.000 ,2,0,0.,1.2,0.,1.2,0.,1.2,,0.0,,0.0
1980-11-14 06:06:52.200 ,2,0,0.,1.2,0.,1.2,0.,1.2,,0.0,,0.0
1980-11-14 06:06:53.400 ,2,0,0.,1.2,0.,1.2,0.,1.2,,0.0,,0.0
1980-11-14 06:06:54.600 ,2,0,0.,1.2,0.,1.2,0.,1.2,,0.0,,0.0
1980-11-14 06:06:55.800 ,2,0,0.,1.2,0.,1.2,0.,1.2,,0.0,,0.0
1980-11-14 06:06:57.000 ,2,0,0.,1.2,0.,1.2,0.,1.2,,0.0,,0.0
1980-11-14 06:06:58.200 ,2,0,0.,1.2,0.,1.2,0.,1.2,,0.0,,0.0
1980-11-14 06:06:59.400 ,1,0,0.,1.2,0.,1.2,0.,1.2,,0.0,,0.0
1980-11-14 06:07:00.600 ,1,0,0.,1.2,0.,1.2,0.,1.2,,0.0,,0.0
1980-11-14 06:07:01.800 ,1,0,0.,1.2,0.,1.2,0.,1.2,,0.0,,0.0
1980-11-14 06:07:03.000 ,1,0,0.,1.2,0.,1.2,0.,1.2,,0.0,,0.0
1980-11-14 06:07:04.200 ,1,0,0.,1.2,0.,1.2,0.,1.2,,0.0,,0.0
1980-11-14 06:07:05.400 ,1,0,0.,1.2,0.,1.2,0.,1.2,,0.0,,0.0
1980-11-14 06:07:06.600 ,1,0,0.,1.2,0.,1.2,0.,1.2,,0.0,,0.0
1980-11-14 06:07:07.800 ,1,0,0.,1.2,0.,1.2,0.,1.2,,0.0,,0.0
1980-11-14 06:07:09.000 ,1,0,0.,1.2,0.,1.2,0.,1.2,,0.0,,0.0
1980-11-14 06:07:10.200 ,1,0,0.,1.2,0.,1.2,0.,1.2,,0.0,,0.0
1980-11-14 06:07:11.400 ,1,0,0.,1.2,0.,1.2,0.,1.2,,0.0,,0.0
1980-11-14 06:07:12.600 ,1,0,0.,1.2,0.,1.2,0.,1.2,,0.0,,0.0
1980-11-14 06:07:13.800 ,1,0,0.,1.2,0.,1.2,0.,1.2,,0.0,,0.0
1980-11-14 06:07:15.000 ,1,0,0.,1.2,0.,1.2,0.,1.2,,0.0,,0.0
1980-11-14 06:07:16.200 ,1,0,0.,1.2,0.,1.2,0.,1.2,,0.0,,0.0
1980-11-14 06:07:17.400 ,1,0,0.,1.2,0.,1.2,0.,1.2,,0.0,,0.0
1980-11-14 06:07:18.600 ,1,0,0.,1.2,0.,1.2,0.,1.2,,0.0,,0.0
1980-11-14 06:07:19.800 ,1,0,0.,1.2,0.,1.2,0.,1.2,,0.0,,0.0
1980-11-14 06:07:21.000 ,1,0,0.,1.2,0.,1.2,0.,1.2,,0.0,,0.0
1980-11-14 06:07:22.200 ,1,0,0.,1.2,0.,1.2,0.,1.2,,0.0,,0.0
1980-11-14 06:07:23.400 ,1,0,0.,1.2,0.,1.2,0.,1.2,,0.0,,0.0
1980-11-14 06:07:24.600 ,1,0,0.,1.2,0.,1.2,0.,1.2,,0.0,,0.0
1980-11-14 06:07:25.800 ,1,0,0.,1.2,0.,1.2,0.,1.2,,0.0,,0.0
1980-11-14 06:07:27.000 ,1,0,0.,1.2,0.,1.2,0.,1.2,,0.0,,0.0
1980-11-14 06:07:28.200 ,1,0,0.,1.2,0.,1.2,0.,1.2,,0.0,,0.0
1980-11-14 06:07:29.400 ,1,0,0.,1.2,0.,1.2,0.,1.2,,0.0,,0.0
1980-11-14 06:07:30.600 ,1,0,0.,1.2,0.,1.2,0.,1.2,,0.0,,0.0
1980-11-14 06:07:31.800 ,1,0,0.,1.2,0.,1.2,0.,1.2,,0.0,,0.0
1980-11-14 06:07:33.000 ,1,0,0.,1.2,0.,1.2,0.,1.2,,0.0,,0.0
1980-11-14 06:07:34.200 ,1,0,0.,1.2,0.,1.2,0.,1.2,,0.0,,0.0
1980-11-14 06:07:35.400 ,1,0,0.,1.2,0.,1.2,0.,1.2,,0.0,,0.0
1980-11-14 06:07:36.600 ,1,0,0.,1.2,0.,1.2,0.,1.2,,0.0,,0.0
1980-11-14 06:07:37.800 ,1,0,0.,1.2,0.,1.2,0.,1.2,,0.0,,0.0
1980-11-14 06:07:39.000 ,1,0,0.,1.2,0.,1.2,0.,1.2,,0.0,,0.0
1980-11-14 06:07:40.200 ,1,0,0.,1.2,0.,1.2,0.,1.2,,0.0,,0.0
1980-11-14 06:07:41.400 ,1,0,0.,1.2,0.,1.2,0.,1.2,,0.0,,0.0
1980-11-14 06:07:42.600 ,1,0,0.,1.2,0.,1.2,0.,1.2,,0.0,,0.0
1980-11-14 06:07:43.800 ,1,0,0.,1.2,0.,1.2,0.,1.2,,0.0,,0.0
1980-11-14 06:07:45.000 ,1,0,0.,1.2,0.,1.2,0.,1.2,,0.0,,0.0
1980-11-14 06:07:46.200 ,1,0,0.,1.2,0.,1.2,0.,1.2,,0.0,,0.0
1980-11-14 06:07:47.400 ,0,0,,0,,0,,0,,0,,0
1980-11-14 06:07:48.600 ,0,0,0.,1.2,0.,1.2,0.,1.2,,0.0,,0.0
1980-11-14 06:07:49.800 ,0,0,0.,1.2,0.,1.2,0.,1.2,,0.0,,0.0
1980-11-14 06:07:51.000 ,0,0,0.,1.2,0.,1.2,0.,1.2,,0.0,,0.0
1980-11-14 06:07:52.200 ,0,0,0.,1.2,0.,1.2,0.,1.2,,0.0,,0.0
1980-11-14 06:07:53.400 ,0,0,0.,1.2,0.,1.2,0.,1.2,,0.0,,0.0
1980-11-14 06:07:54.600 ,0,0,0.,1.2,0.,1.2,0.,1.2,,0.0,,0.0
1980-11-14 06:07:55.800 ,0,0,0.,1.2,0.,1.2,0.,1.2,,0.0,,0.0
1980-11-14 06:07:57.000 ,0,0,0.,1.2,0.,1.2,0.,1.2,,0.0,,0.0
1980-11-14 06:07:58.200 ,0,0,0.,1.2,0.,1.2,0.,1.2,,0.0,,0.0
1980-11-14 06:07:59.400 ,0,0,0.,1.2,0.,1.2,0.,1.2,,0.0,,0.0
1980-11-14 06:08:00.600 ,0,0,0.,1.2,0.,1.2,0.,1.2,,0.0,,0.0